Weather reports worldwide

Advertisment
Artern, Germany (10460): temperature & dewpoint: 20.06.2019 17:00:00 - 26.06.2019 17:00:00 (CEST)Artern, Germany (10460): temperature 5cm & temperature -5cm: 20.06.2019 17:00:00 - 26.06.2019 17:00:00 (CEST)Artern, Germany (10460): temperature -20cm & temperature -100cm: 20.06.2019 17:00:00 - 26.06.2019 17:00:00 (CEST)Artern, Germany (10460): wind speed & gusts: 20.06.2019 17:00:00 - 26.06.2019 17:00:00 (CEST)Artern, Germany (10460): wind direction: 20.06.2019 17:00:00 - 26.06.2019 17:00:00 (CEST)Artern, Germany (10460): reduced air pressure: 20.06.2019 17:00:00 - 26.06.2019 17:00:00 (CEST)Artern, Germany (10460): visibility: 20.06.2019 17:00:00 - 26.06.2019 17:00:00 (CEST)Artern, Germany (10460): sunshine duration: 20.06.2019 17:00:00 - 26.06.2019 17:00:00 (CEST)Artern, Germany (10460): precipitation: 20.06.2019 17:00:00 - 26.06.2019 17:00:00 (CEST)
Date & Time tt [°C] td [°C] tt 5cm [°C] tt -5cm [°C] tt -20cm [°C] tt -100cm [°C] ff [km/h] ff [kn] fx [km/h] fx [kn] dd ppp [hPa] vv [km] sd [min] rr [mm]
26.06.2019 17:00:00 34,8 17,6 41,2 36,7 27,3 17,6 16 9 36 19 WNW 1019,7 30 60 0,0
26.06.2019 16:00:00 35,3 16,1 41,0 37,1 26,8 17,6 20 11 33 18 WNW 1020,0 52 60 0,0
26.06.2019 15:00:00 35,6 15,6 42,5 36,9 26,3 17,6 20 11 33 18 WNW 1020,1 56 60 0,0
26.06.2019 14:00:00 35,1 15,9 42,3 36,0 25,8 17,6 21 11 36 19 WNW 1020,4 51 60 0,0
26.06.2019 13:00:00 34,7 16,8 40,5 34,8 25,3 17,6 19 10 36 19 WNW 1020,5 75 60 0,0
26.06.2019 12:00:00 33,9 16,8 40,0 33,3 24,9 17,6 16 9 26 14 WNW 1020,7 60 60 0,0
26.06.2019 11:00:00 32,3 19,1 38,9 31,0 24,6 17,6 13 7 19 11 SW 1020,7 44 60 0,0
26.06.2019 10:00:00 29,5 18,3 35,7 28,5 24,5 17,5 10 6 19 10 WSW 1020,8 63 60 0,0
26.06.2019 09:00:00 27,3 17,2 31,8 26,2 24,6 17,5 10 5 17 9 SW 1020,8 57 60 0,0
26.06.2019 08:00:00 23,1 16,7 26,7 24,3 24,8 17,5 4 2 11 6 SW 1020,6 45 60 0,0
26.06.2019 07:00:00 20,5 16,2 21,8 23,3 25,0 17,5 4 2 6 4 WSW 1020,7 42 60 0,0
26.06.2019 06:00:00 20,0 16,5 18,1 23,2 25,3 17,5 3 2 5 3 WNW 1020,6 43 1 0,0
26.06.2019 05:00:00 19,5 16,2 16,7 23,5 25,6 17,5 4 2 9 5 WSW 1020,3 55 0 0,0
26.06.2019 04:00:00 20,5 16,5 18,1 24,0 25,8 17,5 6 3 9 5 WSW 1020,3 52 0 0,0
26.06.2019 03:00:00 20,5 16,5 17,5 24,5 26,1 17,5 5 3 6 4 W 1020,3 52 0 0,0
26.06.2019 02:00:00 21,4 16,2 17,6 25,1 26,4 17,5 4 2 7 4 SSW 1020,0 60 0 0,0
26.06.2019 01:00:00 22,8 16,2 18,9 25,9 26,7 17,5 4 2 9 5 SSW 1019,9 68 0 0,0
26.06.2019 00:00:00 23,4 16,2 20,0 26,8 26,9 17,5 5 3 13 7 WSW 1019,8 62 0 0,0
25.06.2019 23:00:00 25,4 16,0 20,7 27,8 27,1 17,5 4 2 9 5 WNW 1019,4 69 0 0,0
25.06.2019 22:00:00 27,2 15,7 22,2 29,1 27,2 17,5 9 5 12 6 NE 1018,8 71 0 0,0
25.06.2019 21:00:00 30,2 15,9 27,4 30,6 27,1 17,5 9 5 11 6 E 1018,2 67 57 0,0
25.06.2019 20:00:00 32,8 15,4 34,0 31,9 26,9 17,4 6 4 16 8 ESE 1018,1 60 60 0,0
25.06.2019 19:00:00 33,9 14,4 37,1 33,1 26,7 17,4 9 5 21 11 SE 1018,1 62 60 0,0
25.06.2019 18:00:00 33,6 14,8 38,0 34,3 26,3 17,4 10 6 24 13 ESE 1018,4 45 60 0,0
25.06.2019 17:00:00 33,4 14,7 39,5 35,3 25,8 17,4 10 6 25 14 ESE 1018,8 66 60 0,0
25.06.2019 16:00:00 32,4 13,9 39,6 35,7 25,2 17,4 10 5 29 16 SE 1019,2 66 60 0,0
25.06.2019 15:00:00 33,4 13,4 40,9 35,3 24,6 17,4 13 7 26 14 SSE 1019,5 50 60 0,0
25.06.2019 14:00:00 31,8 13,6 40,4 34,3 24,1 17,4 11 6 27 15 SSE 1019,9 65 60 0,0
25.06.2019 13:00:00 31,2 12,7 38,2 32,6 23,6 17,4 16 9 28 15 SE 1020,2 70 60 0,0
25.06.2019 12:00:00 30,8 15,2 37,2 30,2 23,3 17,4 14 7 24 13 SE 1020,6 65 60 0,0
25.06.2019 11:00:00 28,6 15,7 34,1 27,7 23,1 17,4 11 6 20 11 SE 1020,7 10 60 0,0
25.06.2019 10:00:00 26,4 14,7 30,3 26,0 23,0 17,4 8 4 15 8 SE 1020,9 62 58 0,0
25.06.2019 09:00:00 24,0 13,2 28,5 23,9 23,0 17,4 6 4 11 6 ESE 1021,3 74 60 0,0
25.06.2019 08:00:00 21,4 11,9 24,7 22,0 23,2 17,4 4 2 8 5 ENE 1021,5 62 60 0,0
25.06.2019 07:00:00 18,5 11,5 19,9 20,6 23,5 17,4 2 1 9 5 SW 1021,6 58 60 0,0
25.06.2019 06:00:00 15,6 10,8 13,1 20,7 23,8 17,3 2 1 13 7 SW 1021,6 52 3 0,0
25.06.2019 05:00:00 16,6 10,5 13,1 21,1 24,1 17,3 9 5 15 8 ENE 1021,4 58 0 0,0
25.06.2019 04:00:00 16,6 10,5 13,4 21,6 24,4 17,3 3 2 15 8 SW 1021,5 71 0 0,0
25.06.2019 03:00:00 18,7 10,0 14,3 22,2 24,7 17,3 8 4 11 6 ENE 1021,7 70 0 0,0
25.06.2019 02:00:00 19,6 9,3 15,2 22,8 25,0 17,3 6 4 10 5 ENE 1021,8 72 0 0,0
25.06.2019 01:00:00 20,7 8,7 16,1 23,5 25,3 17,3 9 5 10 5 NE 1021,5 75 0 0,0
25.06.2019 00:00:00 21,6 8,8 16,4 24,4 25,6 17,3 5 3 10 6 NE 1021,6 75 0 0,0
24.06.2019 23:00:00 22,3 8,5 16,8 25,3 25,8 17,3 6 4 12 7 E 1021,3 75 0 0,0
24.06.2019 22:00:00 23,4 8,4 19,3 26,6 25,9 17,3 9 5 14 8 E 1021,3 73 6 0,0
24.06.2019 21:00:00 25,4 8,8 24,5 28,0 25,9 17,3 9 5 14 8 ENE 1020,8 75 60 0,0
24.06.2019 20:00:00 27,2 6,8 27,9 29,1 25,8 17,3 13 7 22 12 E 1020,7 75 60 0,0
24.06.2019 19:00:00 28,8 6,0 31,2 30,4 25,6 17,3 16 9 27 15 E 1020,7 71 60 0,0
24.06.2019 18:00:00 29,3 5,8 33,9 31,8 25,3 17,3 13 7 29 16 E 1020,9 65 60 0,0
24.06.2019 17:00:00 29,1 5,7 34,5 33,0 24,9 17,3 18 10 30 16 E 1021,1 66 60 0,0
24.06.2019 16:00:00 29,2 7,2 35,8 33,5 24,4 17,3 14 8 34 19 E 1021,5 53 60 0,0
24.06.2019 15:00:00 28,7 7,0 35,6 33,2 23,9 17,3 23 12 37 20 E 1021,7 75 60 0,0
24.06.2019 14:00:00 28,3 8,4 35,9 32,3 23,4 17,2 19 10 39 21 E 1021,8 63 60 0,0
24.06.2019 13:00:00 27,6 8,5 33,2 31,0 23,0 17,2 21 11 37 20 E 1022,1 53 60 0,0
24.06.2019 12:00:00 27,0 8,9 32,6 29,1 22,7 17,2 18 10 38 21 ESE 1022,4 62 60 0,0
24.06.2019 11:00:00 26,5 9,5 32,2 27,3 22,4 17,2 17 9 30 16 ESE 1022,5 58 60 0,0
24.06.2019 10:00:00 24,8 10,8 28,8 25,2 22,3 17,2 17 9 27 15 ESE 1022,9 58 60 0,0
24.06.2019 09:00:00 21,8 13,1 26,3 22,9 22,4 17,2 6 3 14 8 SE 1023,3 44 60 0,0
24.06.2019 08:00:00 19,6 11,7 23,3 21,0 22,6 17,2 4 2 11 6 SE 1023,4 75 60 0,0
24.06.2019 07:00:00 17,3 11,2 18,7 19,6 22,9 17,2 4 2 11 6 NNE 1023,6 53 60 0,0
24.06.2019 06:00:00 16,1 10,9 12,6 19,6 23,3 17,2 5 3 11 6 ENE 1023,4 59 3 0,0
24.06.2019 05:00:00 15,3 10,6 12,5 20,1 23,6 17,2 10 5 15 8 ENE 1023,1 60 0 0,0
24.06.2019 04:00:00 15,4 10,7 11,9 20,7 24,0 17,2 8 4 15 8 NE 1022,9 57 0 0,0
24.06.2019 03:00:00 17,3 10,7 15,0 21,4 24,3 17,2 13 7 16 9 ENE 1022,8 64 0 0,0
24.06.2019 02:00:00 18,1 11,7 13,9 22,1 24,7 17,2 6 3 13 7 NE 1022,5 70 0 0,0
24.06.2019 01:00:00 18,1 11,9 14,2 22,9 25,0 17,2 7 4 9 5 ENE 1021,9 66 0 0,0
24.06.2019 00:00:00 19,0 12,2 15,5 23,9 25,3 17,2 8 5 12 6 ENE 1021,6 66 0 0,0
23.06.2019 23:00:00 19,2 12,7 16,0 25,0 25,5 17,2 11 6 15 8 NE 1021,2 62 0 0,0
23.06.2019 22:00:00 21,0 12,8 18,1 26,3 25,7 17,2 12 7 14 8 NE 1021,0 66 7 0,0
23.06.2019 21:00:00 23,6 12,3 23,0 27,9 25,7 17,2 12 6 25 14 E 1019,9 73 60 0,0
23.06.2019 20:00:00 26,2 11,5 27,3 29,3 25,5 17,2 16 9 30 16 E 1019,5 67 60 0,0
23.06.2019 19:00:00 27,2 11,0 29,5 30,7 25,3 17,2 20 11 33 18 ENE 1019,2 75 60 0,0
23.06.2019 18:00:00 28,2 10,8 33,0 31,9 24,9 17,2 15 8 35 19 E 1019,1 62 60 0,0
23.06.2019 17:00:00 27,5 10,0 31,4 33,0 24,4 17,2 19 10 32 17 E 1019,6 69 54 0,0
23.06.2019 16:00:00 27,6 9,0 34,1 33,2 23,9 17,2 19 10 35 19 E 1019,8 62 59 0,0
23.06.2019 15:00:00 28,0 9,2 34,3 33,0 23,3 17,2 19 11 41 22 ENE 1020,0 75 60 0,0
23.06.2019 14:00:00 26,8 8,6 33,3 32,1 22,8 17,2 24 13 39 21 ENE 1020,2 51 60 0,0
23.06.2019 13:00:00 26,4 8,9 32,5 30,5 22,3 17,2 19 11 42 23 ENE 1020,5 61 60 0,0
23.06.2019 12:00:00 25,5 8,5 29,9 28,7 21,9 17,2 27 15 43 23 E 1020,7 71 60 0,0
23.06.2019 11:00:00 23,7 11,5 29,9 26,8 21,6 17,1 19 11 31 17 ENE 1021,0 63 60 0,0
23.06.2019 10:00:00 21,9 12,6 27,6 24,4 21,4 17,1 14 8 23 12 ENE 1021,1 71 60 0,0
23.06.2019 09:00:00 19,5 12,1 24,6 22,0 21,5 17,1 13 7 25 14 ENE 1021,4 55 60 0,0
23.06.2019 08:00:00 18,2 12,2 21,8 20,2 21,7 17,1 16 9 23 12 NE 1021,2 43 60 0,0
23.06.2019 07:00:00 16,6 12,0 17,7 19,0 21,9 17,1 8 5 20 11 NNE 1021,0 49 60 0,0
23.06.2019 06:00:00 15,4 11,8 14,4 19,3 22,1 17,1 15 8 20 11 NE 1021,0 51 2 0,0
23.06.2019 05:00:00 16,5 11,8 15,9 19,8 22,4 17,1 11 6 18 10 ENE 1020,7 59 0 0,0
23.06.2019 04:00:00 17,0 11,8 16,5 20,0 22,7 17,1 11 6 16 9 ENE 1020,4 62 0 0,0
23.06.2019 03:00:00 16,2 11,8 15,0 20,2 23,0 17,1 6 3 21 11 ENE 1020,4 66 0 0,0
23.06.2019 02:00:00 16,5 11,6 15,2 20,7 23,3 17,1 18 10 26 14 ENE 1019,9 56 0 0,0
23.06.2019 01:00:00 17,3 11,8 15,9 21,5 23,6 17,1 18 10 23 13 NE 1019,7 70 0 0,0
23.06.2019 00:00:00 18,0 12,2 16,8 22,4 23,8 17,1 18 10 23 12 NE 1019,4 63 0 0,0
22.06.2019 23:00:00 19,4 12,8 18,5 23,4 24,0 17,1 16 9 23 12 NE 1019,0 64 0 0,0
22.06.2019 22:00:00 21,4 12,6 20,8 24,4 24,2 17,1 18 10 26 14 NE 1018,6 63 0 0,0
22.06.2019 21:00:00 22,7 12,6 22,3 25,4 24,2 17,1 19 10 29 16 NE 1018,0 71 0 0,0
22.06.2019 20:00:00 23,9 13,2 24,3 26,7 24,2 17,1 21 11 34 18 NE 1018,0 71 18 0,0
22.06.2019 19:00:00 24,8 12,9 27,2 27,3 24,1 17,1 23 12 33 18 NE 1017,8 52 4 0,0
22.06.2019 18:00:00 24,5 13,2 25,6 28,6 23,9 17,1 27 14 37 20 NE 1018,2 59 20 0,0
22.06.2019 17:00:00 24,7 13,2 26,6 29,6 23,5 17,1 25 14 43 23 NE 1018,5 54 27 0,0
22.06.2019 16:00:00 26,1 13,7 31,5 31,0 23,0 17,1 27 15 44 24 NE 1018,7 75 41 0,0
22.06.2019 15:00:00 25,3 13,9 30,1 30,8 22,5 17,1 27 15 42 23 NE 1019,1 48 40 0,0
22.06.2019 14:00:00 25,0 13,5 31,8 30,7 21,9 17,1 24 13 43 23 NE 1019,7 57 57 0,0
22.06.2019 13:00:00 24,1 13,7 30,4 29,4 21,4 17,1 27 15 40 22 NE 1020,5 75 57 0,0
22.06.2019 12:00:00 22,7 12,6 27,6 27,4 20,9 17,1 25 13 38 20 NE 1021,1 61 60 0,0
22.06.2019 11:00:00 21,9 12,1 28,0 24,7 20,7 17,1 24 13 32 17 NE 1021,1 49 52 0,0
22.06.2019 10:00:00 20,2 12,7 24,6 22,0 20,6 17,1 21 11 32 18 NE 1021,7 50 30 0,0
22.06.2019 09:00:00 18,4 12,5 23,2 20,2 20,7 17,1 15 8 21 11 NNE 1021,9 44 53 0,0
22.06.2019 08:00:00 16,2 11,3 18,1 18,6 20,9 17,1 16 9 23 12 NE 1021,8 52 51 0,0
22.06.2019 07:00:00 14,7 10,7 14,7 17,8 21,1 17,1 13 7 19 11 NNE 1022,0 59 0 0,0
22.06.2019 06:00:00 13,9 11,1 13,8 17,7 21,4 17,1 8 5 18 10 NNE 1022,0 50 0 0,0
22.06.2019 05:00:00 14,0 10,9 12,9 18,0 21,7 17,1 13 7 18 10 NNE 1021,9 52 0 0,0
22.06.2019 04:00:00 14,7 11,0 13,9 18,6 21,9 17,1 15 8 21 11 NE 1021,7 57 0 0,0
22.06.2019 03:00:00 15,6 10,6 14,1 19,2 22,2 17,1 7 4 14 8 N 1021,5 50 0 0,0
22.06.2019 02:00:00 16,1 10,4 14,7 19,5 22,5 17,1 8 4 10 5 N 1020,9 58 0 0,0
22.06.2019 01:00:00 15,8 11,1 13,7 19,9 22,8 17,0 6 4 12 7 N 1021,0 51 0 0,0
22.06.2019 00:00:00 16,9 11,5 16,2 20,5 23,0 17,0 10 6 16 9 NNE 1020,7 54 0 0,0
21.06.2019 23:00:00 16,6 12,1 14,7 21,2 23,3 17,0 12 7 18 10 NNE 1020,3 49 0 0,0
21.06.2019 22:00:00 17,9 12,8 16,5 22,5 23,4 17,0 13 7 23 13 NE 1019,7 47 0 0,0
21.06.2019 21:00:00 20,2 12,6 20,2 23,9 23,4 17,0 14 8 25 14 NNE 1018,6 62 55 0,0
21.06.2019 20:00:00 22,0 12,9 24,0 25,0 23,4 17,0 18 10 25 14 NNE 1017,7 69 37 0,0
21.06.2019 19:00:00 22,7 13,3 26,9 26,2 23,2 17,0 18 10 29 16 NNE 1017,2 75 51 0,0
21.06.2019 18:00:00 23,6 9,8 24,4 26,4 23,0 17,0 8 5 16 9 WNW 1017,0 69 12 0,0
21.06.2019 17:00:00 24,7 9,9 30,0 27,7 22,7 17,0 5 3 14 8 WSW 1017,0 61 28 0,0
21.06.2019 16:00:00 22,9 11,0 27,6 28,3 22,4 17,0 11 6 19 11 ENE 1017,2 53 42 0,0
21.06.2019 15:00:00 23,1 12,5 26,8 26,6 22,1 17,0 7 4 18 10 NW 1017,5 68 11 0,0
21.06.2019 14:00:00 22,6 12,2 26,8 26,4 21,8 17,0 6 4 19 10 WSW 1017,6 67 16 0,0
21.06.2019 13:00:00 23,3 12,5 28,8 26,6 21,5 17,0 8 4 16 9 SW 1017,7 63 42 0,0
21.06.2019 12:00:00 21,1 13,0 23,9 24,2 21,3 17,0 6 4 12 6 WSW 1017,9 49 13 0,0
21.06.2019 11:00:00 20,4 13,6 24,5 23,1 21,1 17,0 4 2 9 5 S 1017,9 44 16 0,0
21.06.2019 10:00:00 18,5 14,3 20,1 21,9 21,1 16,9 7 4 14 7 NNW 1017,7 36 21 0,0
21.06.2019 09:00:00 18,1 14,7 20,9 20,9 21,1 16,9 9 5 15 8 WSW 1017,6 23 31 0,0
21.06.2019 08:00:00 17,2 14,3 18,7 20,0 21,2 16,9 4 2 11 6 W 1016,9 25 39 0,0
21.06.2019 07:00:00 16,2 14,7 16,4 18,7 21,4 16,9 4 2 10 6 NNW 1016,6 20 0 0,0
21.06.2019 06:00:00 15,8 14,7 15,7 18,6 21,6 16,9 8 5 11 6 SW 1016,3 20 0 0,0
21.06.2019 05:00:00 15,9 14,6 15,6 18,7 21,9 16,9 8 4 10 5 W 1015,9 25 0 0,0
21.06.2019 04:00:00 15,7 14,4 15,4 18,6 22,1 16,9 4 2 10 5 W 1015,6 37 0 0,0
21.06.2019 03:00:00 15,5 14,2 15,2 18,7 22,5 16,9 7 4 13 7 W 1015,1 38 0 0,0
21.06.2019 02:00:00 15,1 13,9 14,0 18,8 22,8 16,9 9 5 14 7 SW 1015,0 45 0 0,0
21.06.2019 01:00:00 15,8 13,5 14,1 19,4 23,2 16,9 8 4 19 11 W 1014,5 62 0 0,0
21.06.2019 00:00:00 15,8 14,8 14,9 20,2 23,5 16,9 9 5 13 7 W 1014,0 41 0 0,0
20.06.2019 23:00:00 16,3 14,9 14,7 21,2 23,8 16,9 5 3 12 7 SSW 1013,5 62 0 0,0
20.06.2019 22:00:00 16,5 14,8 16,0 22,2 24,0 16,9 8 4 33 18 SE 1013,5 70 0 1,4
20.06.2019 21:00:00 18,0 16,2 17,2 24,2 24,1 16,8 16 9 29 16 SW 1012,6 9 0 1,4
20.06.2019 20:00:00 23,8 14,0 23,7 25,8 24,0 16,8 8 4 12 7 SSW 1010,8 75 2 0,0
20.06.2019 19:00:00 24,7 13,9 25,7 26,9 23,8 16,8 8 4 27 14 WNW 1010,8 72 35 0,0
20.06.2019 18:00:00 25,8 14,3 31,0 27,9 23,6 16,8 12 7 20 11 W 1010,3 63 60 0,0
20.06.2019 17:00:00 24,8 15,5 27,4 27,6 23,4 16,8 13 7 35 19 WNW 1010,6 55 35 0,0

tt = temperature
td = dewpoint
tt 5cm = temperature 5cm
tt -5cm = temperature -5cm
tt -20cm = temperature -20cm
tt -100cm = temperature -100cm
ff = wind speed
fx = gusts
dd = wind direction
ppp = reduced air pressure
vv = visibility
sd = sunshine duration
rr = precipitation

Next stations